User: anonymous   Login
Location: Boca do Mato
(22.9085°S, 43.2930°W)
Time: 13:29:57
(UTC+00:00)
Language:

Cosmos 2360 Rocket - Orbit

View from above orbital plane
View from above orbital plane
View from above satellite
View from above satellite

Ground track
Ground track

The orbit data is extracted from the following two-line orbital elements,

1 25407U 98045B   20274.61078215 -.00000045  00000-0  12743-5 0  9991
2 25407  71.0126  36.6044 0007623 190.0970 170.0001 14.15826802146236
Epoch (UTC): 30 September 2020 14:39:31
Eccentricity: 0.0007623
inclination: 71.0126°
perigee height: 834 km
apogee height: 845 km
right ascension of ascending node: 36.6044°
argument of perigee: 190.0970°
revolutions per day: 14.15826802
mean anomaly at epoch: 170.0001°
orbit number at epoch: 14623

The dashed part of the orbit path shows where the satellite is in the earth's shadow,  

DLR